When you browse on this site, cookies collect data to enhance your experience and personalize the content and advertising you see.
Visit our Privacy Policy to learn more. By continuing to use the site, you agree to this use of cookies and data.
  • In Hungary
  • List of Countries
  • For 7 days
  • Water Temperature
  • Satellite Maps
  • Weather Map
  • News
  • Weather Widgets
  • user-avatar
    Login

    Hourly Weather Katoya

    Today, 21 April, Sunday

    Time Temperature Precipitation Wind Pressure Humidity
    00:00 +34°C° 0 mm 4 mps 752 mmHg 31%
    01:00 +33°C° 0 mm 3 mps 752 mmHg 36%
    02:00 +33°C° 0 mm 3 mps 751 mmHg 41%
    03:00 +31°C° 0 mm 3 mps 751 mmHg 46%
    04:00 +31°C° 0 mm 3 mps 751 mmHg 49%
    05:00 +30°C° 0 mm 3 mps 752 mmHg 52%
    06:00 +30°C° 0 mm 2 mps 752 mmHg 54%
    07:00 +33°C° 0 mm 3 mps 752 mmHg 51%
    08:00 +34°C° 0 mm 3 mps 752 mmHg 48%
    09:00 +35°C° 0 mm 3 mps 753 mmHg 45%
    10:00 +37°C° 0 mm 3 mps 753 mmHg 37%
    11:00 +39°C° 0 mm 2 mps 752 mmHg 28%
    12:00 +41°C° 0 mm 2 mps 752 mmHg 20%
    13:00 +40°C° 0 mm 2 mps 751 mmHg 20%
    14:00 +40°C° 0 mm 2 mps 751 mmHg 21%
    15:00 +40°C° 0 mm 2 mps 750 mmHg 21%
    16:00 +39°C° 0 mm 2 mps 750 mmHg 23%
    17:00 +39°C° 0 mm 2 mps 750 mmHg 24%
    18:00 +38°C° 0 mm 2 mps 750 mmHg 26%
    19:00 +37°C° 0 mm 3 mps 750 mmHg 28%
    20:00 +36°C° 0 mm 4 mps 751 mmHg 31%
    21:00 +35°C° 0 mm 5 mps 751 mmHg 33%
    22:00 +34°C° 0 mm 4 mps 751 mmHg 34%
    23:00 +34°C° 0 mm 4 mps 751 mmHg 36%

    Tomorrow, 22 April, Monday

    Time Temperature Precipitation Wind Pressure Humidity
    00:00 +33°C° 0 mm 3 mps 751 mmHg 37%
    01:00 +33°C° 0 mm 3 mps 751 mmHg 38%
    02:00 +32°C° 0 mm 4 mps 751 mmHg 39%
    03:00 +32°C° 0 mm 5 mps 750 mmHg 41%
    04:00 +30°C° 0 mm 5 mps 751 mmHg 44%
    05:00 +30°C° 0 mm 4 mps 751 mmHg 47%
    06:00 +29°C° 0 mm 3 mps 751 mmHg 51%
    07:00 +31°C° 0 mm 3 mps 752 mmHg 46%
    08:00 +34°C° 0 mm 3 mps 753 mmHg 42%
    09:00 +36°C° 0 mm 3 mps 753 mmHg 38%
    10:00 +37°C° 0 mm 3 mps 753 mmHg 33%
    11:00 +39°C° 0 mm 2 mps 753 mmHg 29%
    12:00 +41°C° 0 mm 2 mps 752 mmHg 25%
    13:00 +41°C° 0 mm 2 mps 751 mmHg 22%
    14:00 +41°C° 0 mm 2 mps 751 mmHg 20%
    15:00 +41°C° 0 mm 1 mps 750 mmHg 18%
    16:00 +41°C° 0 mm 1 mps 750 mmHg 19%
    17:00 +41°C° 0 mm 1 mps 750 mmHg 20%
    18:00 +40°C° 0 mm 1 mps 750 mmHg 21%
    19:00 +39°C° 0 mm 2 mps 750 mmHg 23%
    20:00 +38°C° 0 mm 2 mps 751 mmHg 24%
    21:00 +37°C° 0 mm 2 mps 752 mmHg 25%
    22:00 +35°C° 0.1 mm 2 mps 752 mmHg 29%
    23:00 +33°C° 0.1 mm 1 mps 752 mmHg 33%

    Day after tomorrow, 23 April, Tuesday

    Time Temperature Precipitation Wind Pressure Humidity
    00:00 +32°C° 0.1 mm 1 mps 752 mmHg 38%
    01:00 +31°C° 0.1 mm 2 mps 752 mmHg 38%
    02:00 +31°C° 0.1 mm 2 mps 752 mmHg 39%
    03:00 +31°C° 0.1 mm 3 mps 751 mmHg 40%
    04:00 +31°C° 0 mm 3 mps 752 mmHg 41%
    05:00 +30°C° 0 mm 2 mps 752 mmHg 42%
    06:00 +30°C° 0 mm 2 mps 753 mmHg 42%
    07:00 +32°C° 0 mm 2 mps 753 mmHg 39%
    08:00 +35°C° 0 mm 2 mps 754 mmHg 36%
    09:00 +37°C° 0 mm 2 mps 754 mmHg 33%
    10:00 +38°C° 0 mm 2 mps 754 mmHg 30%
    11:00 +40°C° 0 mm 2 mps 754 mmHg 27%
    12:00 +41°C° 0 mm 2 mps 753 mmHg 24%
    13:00 +42°C° 0 mm 2 mps 753 mmHg 22%
    14:00 +42°C° 0 mm 1 mps 752 mmHg 21%
    15:00 +42°C° 0 mm 1 mps 751 mmHg 19%
    16:00 +41°C° 0 mm 1 mps 751 mmHg 20%
    17:00 +40°C° 0 mm 1 mps 751 mmHg 21%
    18:00 +40°C° 0 mm 1 mps 751 mmHg 22%
    19:00 +38°C° 0 mm 2 mps 751 mmHg 24%
    20:00 +37°C° 0 mm 3 mps 752 mmHg 26%
    21:00 +36°C° 0 mm 4 mps 753 mmHg 28%
    22:00 +35°C° 0 mm 4 mps 753 mmHg 34%
    23:00 +35°C° 0 mm 5 mps 753 mmHg 39%

    24 April, Wednesday

    Time Temperature Precipitation Wind Pressure Humidity
    00:00 +34°C° 0 mm 6 mps 753 mmHg 45%
    01:00 +33°C° 0 mm 5 mps 753 mmHg 50%
    02:00 +32°C° 0 mm 4 mps 753 mmHg 54%
    03:00 +30°C° 0 mm 3 mps 752 mmHg 59%
    04:00 +30°C° 0 mm 3 mps 753 mmHg 61%
    05:00 +30°C° 0 mm 3 mps 753 mmHg 63%
    06:00 +30°C° 0 mm 3 mps 753 mmHg 65%
    07:00 +33°C° 0 mm 3 mps 754 mmHg 58%
    08:00 +35°C° 0 mm 3 mps 755 mmHg 51%
    09:00 +37°C° 0 mm 2 mps 755 mmHg 44%
    10:00 +39°C° 0 mm 2 mps 755 mmHg 37%
    11:00 +40°C° 0 mm 2 mps 754 mmHg 30%
    12:00 +43°C° 0 mm 3 mps 754 mmHg 23%
    13:00 +42°C° 0 mm 2 mps 753 mmHg 21%
    14:00 +43°C° 0 mm 2 mps 752 mmHg 20%
    15:00 +43°C° 0 mm 2 mps 751 mmHg 19%
    16:00 +42°C° 0 mm 2 mps 751 mmHg 20%
    17:00 +42°C° 0 mm 2 mps 751 mmHg 21%
    18:00 +41°C° 0 mm 2 mps 751 mmHg 22%
    19:00 +39°C° 0 mm 3 mps 751 mmHg 28%
    20:00 +38°C° 0 mm 4 mps 752 mmHg 33%
    21:00 +36°C° 0 mm 5 mps 752 mmHg 39%
    22:00 +35°C° 0 mm 5 mps 752 mmHg 44%
    23:00 +34°C° 0 mm 5 mps 752 mmHg 50%

    25 April, Thursday

    Time Temperature Precipitation Wind Pressure Humidity
    00:00 +33°C° 0 mm 6 mps 752 mmHg 55%
    01:00 +33°C° 0 mm 5 mps 752 mmHg 57%
    02:00 +32°C° 0 mm 4 mps 752 mmHg 59%
    03:00 +32°C° 0 mm 4 mps 751 mmHg 60%
    04:00 +30°C° 0 mm 3 mps 752 mmHg 63%
    05:00 +30°C° 0 mm 3 mps 752 mmHg 65%
    06:00 +29°C° 0 mm 2 mps 753 mmHg 67%
    07:00 +32°C° 0 mm 2 mps 753 mmHg 57%
    08:00 +35°C° 0 mm 3 mps 754 mmHg 47%
    09:00 +37°C° 0 mm 3 mps 754 mmHg 37%
    10:00 +40°C° 0 mm 4 mps 754 mmHg 31%
    11:00 +42°C° 0 mm 4 mps 753 mmHg 25%
    12:00 +44°C° 0 mm 4 mps 753 mmHg 19%
    13:00 +45°C° 0 mm 4 mps 752 mmHg 18%
    14:00 +45°C° 0 mm 4 mps 751 mmHg 17%
    15:00 +46°C° 0 mm 3 mps 750 mmHg 16%
    16:00 +45°C° 0 mm 3 mps 750 mmHg 18%
    17:00 +44°C° 0 mm 3 mps 749 mmHg 19%
    18:00 +44°C° 0 mm 3 mps 749 mmHg 20%
    19:00 +42°C° 0 mm 4 mps 750 mmHg 27%
    20:00 +39°C° 0 mm 5 mps 750 mmHg 35%
    21:00 +36°C° 0 mm 6 mps 751 mmHg 42%
    22:00 +35°C° 0 mm 6 mps 751 mmHg 46%
    23:00 +34°C° 0 mm 6 mps 751 mmHg 50%

    26 April, Friday

    Time Temperature Precipitation Wind Pressure Humidity
    00:00 +33°C° 0 mm 6 mps 751 mmHg 55%
    01:00 +33°C° 0 mm 6 mps 751 mmHg 54%
    02:00 +33°C° 0 mm 6 mps 750 mmHg 54%
    03:00 +33°C° 0 mm 6 mps 750 mmHg 54%
    04:00 +33°C° 0 mm 5 mps 750 mmHg 55%
    05:00 +33°C° 0 mm 4 mps 751 mmHg 55%
    06:00 +33°C° 0 mm 4 mps 751 mmHg 56%
    07:00 +34°C° 0 mm 4 mps 751 mmHg 51%
    08:00 +36°C° 0 mm 5 mps 752 mmHg 46%
    09:00 +37°C° 0 mm 5 mps 752 mmHg 41%
    10:00 +40°C° 0 mm 5 mps 752 mmHg 35%
    11:00 +43°C° 0 mm 5 mps 751 mmHg 30%
    12:00 +46°C° 0 mm 6 mps 751 mmHg 24%
    13:00 +46°C° 0 mm 5 mps 750 mmHg 22%
    14:00 +47°C° 0 mm 4 mps 749 mmHg 20%
    15:00 +47°C° 0 mm 3 mps 748 mmHg 17%
    16:00 +46°C° 0 mm 3 mps 748 mmHg 18%
    17:00 +45°C° 0 mm 2 mps 748 mmHg 19%
    18:00 +43°C° 0 mm 2 mps 748 mmHg 21%
    19:00 +42°C° 0 mm 4 mps 748 mmHg 32%
    20:00 +40°C° 0 mm 6 mps 749 mmHg 43%
    21:00 +36°C° 0 mm 7 mps 750 mmHg 55%
    22:00 +35°C° 0 mm 7 mps 750 mmHg 58%
    23:00 +34°C° 0 mm 6 mps 750 mmHg 61%
    Show more